Pecos, TX

7:49 PM CST on December 15, 2017 (GMT -0600)
Pecos Municipal

Weather History for KPEQ - March, 2014

Change the Weather History Date:

Friday, March 14, 2014

  Actual Average Record
Temperature  
Mean Temperature 58 °F -  
Max Temperature 78 °F 76 °F 94 °F (1967)
Min Temperature 38 °F 38 °F 18 °F (1940)
Degree Days  
Heating Degree Days 7    
Growing Degree Days 8 (Base 50)    
Moisture  
Dew Point 26 °F    
Average Humidity 31    
Maximum Humidity 50    
Minimum Humidity 18    
Precipitation  
Precipitation 0.00 in - - ()
Sea Level Pressure  
Sea Level Pressure 29.94 in    
Wind  
Wind Speed 6 mph (ENE)    
Max Wind Speed 12 mph    
Max Gust Speed -    
Visibility 10 miles    
Events      
Averages and records for this station are not official NWS values.
T = Trace of Precipitation, MM = Missing Value Source: NWS Daily Summary

Daily Weather History Graph

Daily Weather History Graph

Search for Another Location

Airport or City:

Trip Planner

Search our weather history database for the weather conditions in past years. The results will help you decide how hot, cold, wet, or windy it might be!

Date:

Astronomy

Mar. 14, 2014 Rise Set
Actual Time 8:05 AM CDT 8:01 PM CDT
Civil Twilight 7:41 AM CDT 8:25 PM CDT
Nautical Twilight 7:12 AM CDT 8:53 PM CDT
Astronomical Twilight 6:44 AM CDT 9:22 PM CDT
Moon 6:29 PM CDT (3/14) 6:41 AM CDT (3/14)
Length of Visible Light 12h 44m
Length of Day
11h 56m
Waxing Gibbous, 96% of the Moon is Illuminated
Mar 14
Waxing Gibbous
Mar 16
Full
Mar 23
Last Quarter
Mar 30
New
Apr 7
First Quarter

Hourly Weather History & Observations

Time (CDT) Temp. Windchill Dew Point Humidity Pressure Visibility Wind Dir Wind Speed Gust Speed Precip Events Conditions
12:15 AM 53.6 °F - 21.2 °F 28% 29.95 in 10.0 mi ESE 11.5 mph - N/A   Clear
12:35 AM 52.7 °F - 21.2 °F 29% 29.94 in 10.0 mi ESE 10.4 mph - N/A   Clear
12:55 AM 52.0 °F - 21.2 °F 30% 29.95 in 10.0 mi ESE 8.1 mph - N/A   Clear
1:15 AM 50.9 °F - 21.2 °F 31% 29.95 in 10.0 mi ESE 5.8 mph - N/A   Clear
1:35 AM 49.6 °F - 21.0 °F 32% 29.95 in 10.0 mi ESE 3.5 mph - N/A   Clear
1:55 AM 48.4 °F - 20.8 °F 34% 29.94 in 10.0 mi East 4.6 mph - N/A   Clear
2:15 AM 46.8 °F - 20.3 °F 35% 29.94 in 10.0 mi East 5.8 mph - N/A   Clear
2:35 AM 46.2 °F 43.3 °F 20.3 °F 36% 29.93 in 10.0 mi ENE 5.8 mph - N/A   Clear
2:55 AM 44.8 °F 40.4 °F 20.1 °F 37% 29.93 in 10.0 mi East 8.1 mph - N/A   Clear
3:15 AM 45.5 °F 43.2 °F 20.7 °F 37% 29.93 in 10.0 mi ENE 4.6 mph - N/A   Clear
3:35 AM 44.1 °F 42.5 °F 20.3 °F 39% 29.92 in 10.0 mi ENE 3.5 mph - N/A   Clear
3:55 AM 43.9 °F 41.3 °F 20.8 °F 40% 29.92 in 10.0 mi East 4.6 mph - N/A   Clear
4:15 AM 43.3 °F - 20.1 °F 40% 29.92 in 10.0 mi Calm Calm - N/A   Clear
4:35 AM 42.4 °F 39.6 °F 20.8 °F 42% 29.91 in 10.0 mi ENE 4.6 mph - N/A   Clear
4:55 AM 43.0 °F 40.3 °F 21.0 °F 42% 29.91 in 10.0 mi ENE 4.6 mph - N/A   Clear
5:15 AM 41.4 °F - 20.8 °F 44% 29.90 in 10.0 mi Calm Calm - N/A   Clear
5:35 AM 41.2 °F 38.2 °F 21.6 °F 46% 29.91 in 10.0 mi North 4.6 mph - N/A   Clear
5:55 AM 41.5 °F 39.6 °F 21.9 °F 46% 29.91 in 10.0 mi NE 3.5 mph - N/A   Clear
6:15 AM 41.4 °F 38.4 °F 22.1 °F 46% 29.91 in 10.0 mi NNE 4.6 mph - N/A   Clear
6:35 AM 42.6 °F 40.9 °F 22.1 °F 44% 29.92 in 10.0 mi North 3.5 mph - N/A   Clear
6:55 AM 39.4 °F 35.2 °F 21.0 °F 48% 29.93 in 10.0 mi NNW 5.8 mph - N/A   Clear
7:15 AM 38.5 °F 33.4 °F 20.7 °F 49% 29.93 in 10.0 mi NW 6.9 mph - N/A   Clear
7:35 AM 38.5 °F 34.1 °F 20.7 °F 49% 29.95 in 10.0 mi NW 5.8 mph - N/A   Clear
7:55 AM 38.5 °F 33.4 °F 21.0 °F 50% 29.96 in 10.0 mi NNW 6.9 mph - N/A   Clear
8:15 AM 39.0 °F 34.8 °F 21.2 °F 49% 29.96 in 10.0 mi NW 5.8 mph - N/A   Clear
8:35 AM 40.1 °F 36.1 °F 21.6 °F 48% 29.96 in 10.0 mi NW 5.8 mph - N/A   Clear
8:55 AM 41.5 °F 39.6 °F 21.9 °F 46% 29.97 in 10.0 mi NW 3.5 mph - N/A   Clear
9:15 AM 43.2 °F 41.5 °F 22.3 °F 44% 29.99 in 10.0 mi WNW 3.5 mph - N/A   Clear
9:35 AM 45.5 °F 43.2 °F 22.6 °F 41% 30.00 in 10.0 mi NW 4.6 mph - N/A   Clear
9:55 AM 47.3 °F - 23.0 °F 38% 30.01 in 10.0 mi Calm Calm - N/A   Clear
10:15 AM 49.5 °F - 23.7 °F 37% 30.02 in 10.0 mi Calm Calm - N/A   Clear
10:35 AM 52.0 °F - 24.6 °F 35% 30.02 in 10.0 mi Calm Calm - N/A   Clear
10:55 AM 54.5 °F - 25.3 °F 32% 30.02 in 10.0 mi WNW 3.5 mph - N/A   Clear
11:15 AM 56.3 °F - 25.7 °F 31% 30.03 in 10.0 mi West 5.8 mph - N/A   Clear
11:35 AM 59.0 °F - 26.4 °F 29% 30.02 in 10.0 mi West 3.5 mph - N/A   Clear
11:55 AM 61.3 °F - 27.1 °F 27% 30.03 in 10.0 mi WNW 4.6 mph - N/A   Clear
12:15 PM 63.3 °F - 27.5 °F 26% 30.02 in 10.0 mi Calm Calm - N/A   Clear
12:35 PM 66.2 °F - 28.4 °F 24% 30.02 in 10.0 mi NW 4.6 mph - N/A   Clear
12:55 PM 68.4 °F - 29.3 °F 23% 30.00 in 10.0 mi West 3.5 mph - N/A   Clear
1:15 PM 71.4 °F - 29.7 °F 21% 30.00 in 10.0 mi North 4.6 mph - N/A   Clear
1:35 PM 71.4 °F - 28.9 °F 21% 29.99 in 10.0 mi West 3.5 mph - N/A   Clear
1:55 PM 72.7 °F - 29.1 °F 20% 29.98 in 10.0 mi Calm Calm - N/A   Clear
2:15 PM 73.6 °F - 29.7 °F 20% 29.98 in 10.0 mi NNW 4.6 mph - N/A   Clear
2:35 PM 75.0 °F - 30.4 °F 19% 29.97 in 10.0 mi ENE 5.8 mph - N/A   Clear
2:55 PM 76.1 °F - 31.1 °F 19% 29.95 in 10.0 mi Calm Calm - N/A   Clear
3:15 PM 76.5 °F - 31.3 °F 19% 29.94 in 10.0 mi NE 5.8 mph - N/A   Clear
3:35 PM 76.1 °F - 31.1 °F 19% 29.93 in 10.0 mi NNE 8.1 mph - N/A   Clear
3:55 PM 76.8 °F - 31.3 °F 19% 29.92 in 10.0 mi NE 5.8 mph - N/A   Clear
4:15 PM 76.6 °F - 31.1 °F 19% 29.91 in 10.0 mi East 3.5 mph - N/A   Clear
4:35 PM 77.4 °F - 31.1 °F 18% 29.90 in 10.0 mi ENE 4.6 mph - N/A   Clear
4:55 PM 78.3 °F - 31.1 °F 18% 29.90 in 10.0 mi East 4.6 mph - N/A   Clear
5:15 PM 76.5 °F - 30.0 °F 18% 29.89 in 10.0 mi Calm Calm - N/A   Clear
5:35 PM 77.0 °F - 30.0 °F 18% 29.88 in 10.0 mi NE 4.6 mph - N/A   Clear
5:55 PM 76.5 °F - 29.5 °F 18% 29.88 in 10.0 mi Calm Calm - N/A   Clear
6:15 PM 76.6 °F - 30.2 °F 18% 29.89 in 10.0 mi Calm Calm - N/A   Clear
6:35 PM 76.3 °F - 30.0 °F 18% 29.89 in 10.0 mi SE 3.5 mph - N/A   Clear
6:55 PM 75.7 °F - 30.0 °F 19% 29.89 in 10.0 mi ESE 6.9 mph - N/A   Clear
7:15 PM 75.2 °F - 29.8 °F 19% 29.89 in 10.0 mi SE 3.5 mph - N/A   Clear
7:35 PM 73.6 °F - 29.8 °F 20% 29.89 in 10.0 mi SE 3.5 mph - N/A   Clear
7:55 PM 71.6 °F - 29.3 °F 21% 29.89 in 10.0 mi East 4.6 mph - N/A   Clear
8:15 PM 68.9 °F - 28.9 °F 23% 29.89 in 10.0 mi East 5.8 mph - N/A   Clear
8:35 PM 67.6 °F - 28.4 °F 23% 29.89 in 10.0 mi East 6.9 mph - N/A   Clear
8:55 PM 65.8 °F - 28.4 °F 25% 29.90 in 10.0 mi East 6.9 mph - N/A   Clear
9:15 PM 63.9 °F - 27.5 °F 25% 29.90 in 10.0 mi ESE 5.8 mph - N/A   Clear
9:35 PM 62.6 °F - 27.3 °F 26% 29.90 in 10.0 mi East 5.8 mph - N/A   Clear
9:55 PM 61.0 °F - 27.1 °F 28% 29.90 in 10.0 mi East 8.1 mph - N/A   Clear
10:15 PM 60.1 °F - 27.0 °F 28% 29.90 in 10.0 mi East 5.8 mph - N/A   Clear
10:35 PM 59.5 °F - 27.0 °F 29% 29.90 in 10.0 mi ESE 6.9 mph - N/A   Clear
10:55 PM 57.4 °F - 26.4 °F 31% 29.91 in 10.0 mi ESE 6.9 mph - N/A   Clear
11:15 PM 59.9 °F - 28.4 °F 30% 29.90 in 10.0 mi SE 9.2 mph - N/A   Clear
11:35 PM 60.6 °F - 29.7 °F 31% 29.90 in 10.0 mi SE 9.2 mph - N/A   Clear
11:55 PM 61.3 °F - 30.2 °F 31% 29.90 in 10.0 mi SE 8.1 mph - N/A   Clear